GW7323 Weather Reports


Display with metric or nautical units.
time (UTC)temp
F
wind
direction
speed
MPH
gust
MPH
rain 1hr
in
rain 24hr
in
rain mn
in
humidity
%
barometer
mb
20260905214015 90 122 10.0 15.0 0.00 0.00 0.00 68 1011.8
20260905213512 90 86 7.0 21.0 0.00 0.00 0.00 68 1011.8
20260905213023 90 107 12.0 21.0 0.00 0.00 0.00 67 1011.7
20260905212504 90 113 10.0 20.0 0.00 0.00 0.00 67 1011.7
20260905212003 91 126 8.0 17.0 0.00 0.00 0.00 67 1011.5
20260905211522 91 133 9.0 17.0 0.00 0.00 0.00 67 1011.5
20260905211006 91 94 7.0 17.0 0.00 0.00 0.00 67 1011.5
20260905210510 91 68 8.0 14.0 0.00 0.00 0.00 67 1011.6
20260905210016 91 91 7.0 11.0 0.00 0.00 0.00 66 1011.6
20260905205511 91 46 6.0 16.0 0.00 0.00 0.00 67 1011.7
20260905205010 91 92 5.0 16.0 0.00 0.00 0.00 66 1011.8
20260905204523 92 77 7.0 13.0 0.00 0.00 0.00 65 1011.8
20260905204011 92 71 6.0 16.0 0.00 0.00 0.00 64 1011.8
20260905203515 92 37 10.0 16.0 0.00 0.00 0.00 64 1011.8
20260905203030 92 323 8.0 14.0 0.00 0.00 0.00 63 1011.8
20260905202514 92 4 4.0 11.0 0.00 0.00 0.00 63 1011.8
20260905202013 93 26 6.0 12.0 0.00 0.00 0.00 62 1011.8
20260905201506 93 83 8.0 16.0 0.00 0.00 0.00 63 1011.8
20260905201007 92 67 9.0 18.0 0.00 0.00 0.00 62 1011.7
20260905200506 92 117 10.0 18.0 0.00 0.00 0.00 63 1011.7
20260905200015 92 359 8.0 13.0 0.00 0.00 0.00 63 1011.8
20260905195512 93 56 6.0 11.0 0.00 0.00 0.00 63 1011.8
20260905195009 92 98 3.0 12.0 0.00 0.00 0.00 64 1011.8
20260905194521 92 173 6.0 12.0 0.00 0.00 0.00 62 1012.0
20260905194012 92 96 5.0 17.0 0.00 0.00 0.00 64 1012.0
20260905193514 92 23 5.0 17.0 0.00 0.00 0.00 64 1012.1
20260905193023 92 55 7.0 13.0 0.00 0.00 0.00 63 1012.2
20260905192514 92 25 6.0 15.0 0.00 0.00 0.00 65 1012.3
20260905192013 91 319 7.0 15.0 0.00 0.00 0.00 65 1012.3
20260905191526 92 295 4.0 12.0 0.00 0.00 0.00 65 1012.3
20260905191011 91 359 4.0 12.0 0.00 0.00 0.00 66 1012.3
20260905190504 91 310 6.0 11.0 0.00 0.00 0.00 65 1012.3
20260905190010 91 346 4.0 8.0 0.00 0.00 0.00 66 1012.3
20260905185506 91 302 4.0 9.0 0.00 0.00 0.00 66 1012.4
20260905185006 90 326 5.0 11.0 0.00 0.00 0.00 66 1012.5
20260905184513 90 340 3.0 11.0 0.00 0.00 0.00 67 1012.5
20260905184010 90 23 5.0 9.0 0.00 0.00 0.00 67 1012.5
20260905183509 90 328 6.0 11.0 0.00 0.00 0.00 66 1012.6
20260905183018 90 282 5.0 11.0 0.00 0.00 0.00 67 1012.7
20260905182514 89 345 5.0 9.0 0.00 0.00 0.00 67 1012.7
20260905182011 90 287 6.0 9.0 0.00 0.00 0.00 67 1012.9
20260905181523 90 312 7.0 9.0 0.00 0.00 0.00 66 1012.9
20260905181011 90 20 4.0 10.0 0.00 0.00 0.00 67 1013.0
20260905180515 89 229 3.0 10.0 0.00 0.00 0.00 67 1013.0
20260905180025 89 320 3.0 12.0 0.00 0.00 0.00 67 1013.1
20260905175505 89 89 4.0 12.0 0.00 0.00 0.00 67 1013.1
20260905175007 89 285 4.0 10.0 0.00 0.00 0.00 67 1013.1
20260905174508 89 296 5.0 9.0 0.00 0.00 0.00 66 1013.2
20260905174008 89 270 5.0 8.0 0.00 0.00 0.00 67 1013.3
20260905173510 88 314 4.0 8.0 0.00 0.00 0.00 69 1013.3
20260905173014 88 305 6.0 8.0 0.00 0.00 0.00 67 1013.4
20260905172512 88 328 4.0 8.0 0.00 0.00 0.00 68 1013.5
20260905172012 88 313 4.0 8.0 0.00 0.00 0.00 67 1013.6
20260905171538 88 292 3.0 6.0 0.00 0.00 0.00 69 1013.6
20260905171018 87 234 3.0 8.0 0.00 0.00 0.00 69 1013.7
20260905170514 87 302 4.0 8.0 0.00 0.00 0.00 69 1013.8
20260905170028 86 230 6.0 8.0 0.00 0.00 0.00 69 1013.8
20260905165512 86 276 6.0 8.0 0.00 0.00 0.00 69 1013.9
20260905165003 86 309 6.0 8.0 0.00 0.00 0.00 69 1013.9
20260905164506 86 311 5.0 8.0 0.00 0.00 0.00 70 1013.9
20260905164008 86 257 5.0 8.0 0.00 0.00 0.00 69 1014.0
20260905163506 86 247 5.0 9.0 0.00 0.00 0.00 70 1013.9
20260905163011 85 324 4.0 9.0 0.00 0.00 0.00 70 1013.9
20260905162510 85 314 5.0 9.0 0.00 0.00 0.00 69 1014.0
20260905162013 85 7 5.0 10.0 0.00 0.00 0.00 70 1013.9
20260905161520 85 290 6.0 10.0 0.00 0.00 0.00 70 1013.9
20260905161015 84 323 5.0 9.0 0.00 0.00 0.00 71 1014.0
20260905160515 84 334 5.0 9.0 0.00 0.00 0.00 71 1013.9
20260905160036 84 345 6.0 9.0 0.00 0.00 0.00 72 1013.8
20260905155511 83 13 6.0 11.0 0.00 0.00 0.00 71 1013.9
20260905155011 84 318 7.0 11.0 0.00 0.00 0.00 71 1013.9
20260905154544 83 288 8.0 11.0 0.00 0.00 0.00 71 1014.0
20260905154003 83 297 6.0 12.0 0.00 0.00 0.00 71 1014.0
20260905153510 83 292 8.0 12.0 0.00 0.00 0.00 70 1014.1
20260905153011 83 295 8.0 12.0 0.00 0.00 0.00 70 1014.1
20260905152508 83 78 4.0 11.0 0.00 0.00 0.00 72 1014.0
20260905152007 83 310 8.0 11.0 0.00 0.00 0.00 71 1013.9
20260905151516 83 309 4.0 11.0 0.00 0.00 0.00 70 1013.9
20260905151007 83 238 9.0 14.0 0.00 0.00 0.00 71 1013.9
20260905150513 83 298 7.0 15.0 0.00 0.00 0.00 71 1014.0
20260905150025 82 277 9.0 15.0 0.00 0.00 0.00 72 1013.9
20260905145514 82 256 7.0 13.0 0.00 0.00 0.00 73 1014.0
20260905145011 82 234 6.0 13.0 0.00 0.00 0.00 73 1014.0
20260905144528 82 256 9.0 13.0 0.00 0.00 0.00 74 1014.1
20260905144014 82 296 7.0 12.0 0.00 0.00 0.00 74 1014.2
20260905143510 82 262 7.0 12.0 0.00 0.00 0.00 74 1014.3
20260905143006 81 256 4.0 10.0 0.00 0.00 0.00 74 1014.2
20260905142507 81 229 6.0 11.0 0.00 0.00 0.00 74 1014.2
20260905142008 81 238 8.0 11.0 0.00 0.00 0.00 74 1014.1
20260905141512 81 300 9.0 11.0 0.00 0.00 0.00 74 1014.0
20260905141010 81 226 8.0 11.0 0.00 0.00 0.00 75 1013.8
20260905140507 81 274 5.0 11.0 0.00 0.00 0.00 76 1013.7
20260905140016 81 308 4.0 10.0 0.00 0.00 0.00 77 1013.7
20260905135509 80 307 4.0 11.0 0.00 0.00 0.00 77 1013.8
20260905135013 80 260 5.0 12.0 0.00 0.00 0.00 77 1013.8
20260905134523 80 236 8.0 12.0 0.00 0.00 0.00 77 1013.6
20260905134013 79 231 7.0 11.0 0.00 0.00 0.00 77 1013.7
20260905133515 79 202 6.0 15.0 0.00 0.00 0.00 78 1013.9
20260905133020 79 195 8.0 15.0 0.00 0.00 0.00 79 1013.9
20260905132504 79 219 6.0 15.0 0.00 0.00 0.00 80 1013.9
20260905132008 79 216 7.0 14.0 0.00 0.00 0.00 80 1013.9
20260905131508 79 327 8.0 14.0 0.00 0.00 0.00 80 1013.8
20260905131008 78 285 5.0 15.0 0.00 0.00 0.00 81 1013.9
20260905130509 78 202 10.0 15.0 0.00 0.00 0.00 80 1013.8
20260905130017 78 224 7.0 15.0 0.00 0.00 0.00 80 1013.9
20260905125512 78 214 6.0 17.0 0.00 0.00 0.00 80 1013.9
20260905125012 78 215 7.0 17.0 0.00 0.00 0.00 80 1013.9
20260905124530 79 243 10.0 17.0 0.00 0.00 0.00 79 1013.9
20260905124011 79 230 9.0 13.0 0.00 0.00 0.00 83 1013.8
20260905123512 80 240 5.0 11.0 0.00 0.00 0.00 84 1013.7
20260905123023 80 198 4.0 8.0 0.00 0.00 0.00 84 1013.7
20260905122518 79 188 4.0 8.0 0.00 0.00 0.00 85 1013.5
20260905122011 79 163 3.0 7.0 0.00 0.00 0.00 87 1013.5
20260905121506 78 198 3.0 7.0 0.00 0.00 0.00 88 1013.4
20260905121004 78 164 4.0 5.0 0.00 0.00 0.00 90 1013.4
20260905120504 77 94 0.0 0.0 0.00 0.00 0.00 92 1013.2
20260905120020 76 66 0.0 1.0 0.00 0.00 0.00 92 1013.1
20260905115509 76 66 0.0 1.0 0.00 0.00 0.00 92 1013.0
20260905115010 76 66 0.0 1.0 0.00 0.00 0.00 92 1013.0
20260905114516 76 66 0.0 1.0 0.00 0.00 0.00 92 1013.0
20260905114009 76 40 0.0 2.0 0.00 0.00 0.00 92 1013.0
20260905113513 76 19 1.0 2.0 0.00 0.00 0.00 92 1013.1
20260905113021 76 18 1.0 3.0 0.00 0.00 0.00 92 1013.1
20260905112512 76 336 1.0 3.0 0.00 0.00 0.00 92 1013.0
20260905112013 76 329 2.0 3.0 0.00 0.00 0.00 92 1012.9
20260905111524 76 328 1.0 3.0 0.00 0.00 0.00 91 1012.9
20260905111012 76 316 2.0 4.0 0.00 0.00 0.00 91 1012.9
20260905110504 76 311 3.0 4.0 0.00 0.00 0.00 91 1012.8
20260905110007 76 310 3.0 4.0 0.00 0.00 0.00 91 1012.8
20260905105504 76 295 3.0 4.0 0.00 0.00 0.00 91 1012.8
20260905105017 76 292 2.0 4.0 0.00 0.00 0.00 91 1012.8
20260905104522 76 309 2.0 4.0 0.00 0.00 0.00 91 1012.8
20260905104007 76 311 3.0 4.0 0.00 0.00 0.00 91 1012.8
20260905103511 76 306 2.0 2.0 0.00 0.00 0.00 91 1012.8
20260905103020 76 307 1.0 4.0 0.00 0.00 0.00 92 1012.8
20260905102511 76 311 1.0 4.0 0.00 0.00 0.00 91 1012.7
20260905102012 76 333 3.0 4.0 0.00 0.00 0.00 91 1012.7
20260905101523 77 329 2.0 3.0 0.00 0.00 0.00 91 1012.7
20260905101010 77 5 1.0 4.0 0.00 0.00 0.00 90 1012.8
20260905100510 77 336 2.0 4.0 0.00 0.00 0.00 90 1012.8
20260905100006 77 20 2.0 3.0 0.00 0.00 0.00 90 1012.9
20260905095512 77 34 2.0 3.0 0.00 0.00 0.00 90 1013.0
20260905095006 77 63 1.0 3.0 0.00 0.00 0.00 90 1013.0
20260905094506 78 96 1.0 3.0 0.00 0.00 0.00 90 1013.0
20260905094010 78 52 1.0 3.0 0.00 0.00 0.00 89 1013.0
20260905093507 78 51 2.0 3.0 0.00 0.00 0.00 90 1013.0
20260905092516 77 49 1.0 2.0 0.00 0.00 0.00 90 1013.0
20260905092012 77 45 1.0 2.0 0.00 0.00 0.00 90 1013.0
20260905091523 78 44 1.0 2.0 0.00 0.00 0.00 90 1012.8
20260905091013 78 43 1.0 2.0 0.00 0.00 0.00 89 1012.9
20260905090510 78 42 0.0 3.0 0.00 0.00 0.00 89 1012.9
20260905090024 78 352 1.0 3.0 0.00 0.00 0.00 89 1012.9
20260905085513 78 352 1.0 3.0 0.00 0.00 0.00 88 1012.8
20260905085003 78 303 2.0 3.0 0.00 0.00 0.00 88 1012.8
20260905084512 78 334 2.0 3.0 0.00 0.00 0.00 89 1012.9
20260905084006 78 345 2.0 2.0 0.00 0.00 0.00 88 1012.9
20260905083506 78 345 2.0 3.0 0.00 0.00 0.00 88 1012.9
20260905083016 78 297 2.0 3.0 0.00 0.00 0.00 88 1012.9
20260905082507 78 288 3.0 3.0 0.00 0.00 0.00 89 1012.8
20260905082011 78 36 1.0 2.0 0.00 0.00 0.00 89 1012.7
20260905081515 78 31 1.0 2.0 0.00 0.00 0.00 89 1012.7
20260905081013 78 25 1.0 3.0 0.00 0.00 0.00 89 1012.7
20260905080511 78 19 1.0 3.0 0.00 0.00 0.00 89 1012.5
20260905080034 78 18 2.0 3.0 0.00 0.00 0.00 89 1012.4
20260905075511 78 71 1.0 2.0 0.00 0.00 0.00 89 1012.4
20260905075012 78 26 1.0 3.0 0.00 0.00 0.00 89 1012.3
20260905074521 78 303 2.0 3.0 0.00 0.00 0.00 89 1012.3
20260905074003 78 318 2.0 4.0 0.00 0.00 0.00 90 1012.2
20260905073506 78 11 2.0 4.0 0.00 0.00 0.00 90 1012.2
20260905073026 78 70 0.0 3.0 0.00 0.00 0.00 90 1012.2
20260905072506 78 32 1.0 4.0 0.00 0.00 0.00 90 1012.1
20260905072007 78 332 2.0 5.0 0.00 0.00 0.00 90 1012.0
20260905071512 78 304 3.0 5.0 0.00 0.00 0.00 90 1012.0
20260905071010 78 308 4.0 5.0 0.00 0.00 0.00 90 1012.1
20260905070513 78 321 3.0 4.0 0.00 0.00 0.00 90 1012.1
20260905070023 79 4 1.0 5.0 0.00 0.00 0.00 89 1012.2
20260905065519 79 315 3.0 5.0 0.00 0.00 0.00 88 1012.3
20260905065012 79 304 4.0 5.0 0.00 0.00 0.00 88 1012.3
20260905064521 79 307 4.0 5.0 0.00 0.00 0.00 88 1012.2
20260905064010 79 293 3.0 4.0 0.00 0.00 0.00 88 1012.4
20260905063502 79 53 2.0 3.0 0.00 0.00 0.00 88 1012.5
20260905063006 79 74 1.0 2.0 0.00 0.00 0.00 88 1012.6
20260905062505 79 76 1.0 3.0 0.00 0.00 0.00 88 1012.7
20260905062009 79 20 1.0 3.0 0.00 0.00 0.00 88 1012.8
20260905061529 80 345 2.0 3.0 0.00 0.00 0.00 87 1012.9
20260905061007 80 357 2.0 3.0 0.00 0.00 0.00 86 1012.9
20260905060507 81 10 1.0 3.0 0.00 0.00 0.00 86 1013.0
20260905060020 81 309 2.0 4.0 0.00 0.00 0.00 86 1013.0
20260905055511 81 314 3.0 4.0 0.00 0.00 0.00 85 1013.1
20260905055010 81 314 2.0 4.0 0.00 0.00 0.00 85 1013.1
20260905054521 81 307 3.0 4.0 0.00 0.00 0.00 85 1013.1
20260905054010 81 337 2.0 3.0 0.00 0.00 0.00 84 1013.1
20260905053512 81 70 1.0 3.0 0.00 0.00 0.00 84 1013.1
20260905053023 81 76 2.0 3.0 0.00 0.00 0.00 84 1013.0
20260905052503 81 77 1.0 2.0 0.00 0.00 0.00 85 1013.1
20260905052006 81 77 1.0 2.0 0.00 0.00 0.00 85 1013.2
20260905051539 81 76 2.0 2.0 0.00 0.00 0.00 85 1013.3
20260905051017 81 76 1.0 2.0 0.00 0.00 0.00 84 1013.3
20260905050517 81 76 0.0 2.0 0.00 0.00 0.00 84 1013.3
20260905050036 81 15 1.0 2.0 0.00 0.00 0.00 84 1013.3
20260905045520 81 15 0.0 2.0 0.00 0.00 0.00 84 1013.3
20260905045018 81 15 0.0 4.0 0.00 0.00 0.00 83 1013.3
20260905044539 82 337 2.0 4.0 0.00 0.00 0.00 82 1013.3
20260905044019 82 311 3.0 4.0 0.00 0.00 0.00 82 1013.2
20260905043521 82 357 3.0 3.0 0.00 0.00 0.00 82 1013.2
20260905043045 82 38 2.0 3.0 0.00 0.00 0.00 82 1013.4
20260905042519 82 38 2.0 3.0 0.00 0.00 0.00 82 1013.4
20260905042016 83 37 1.0 3.0 0.00 0.00 0.00 81 1013.3
20260905041530 82 44 2.0 3.0 0.00 0.00 0.00 81 1013.3
20260905041018 82 27 3.0 3.0 0.00 0.00 0.00 81 1013.3
20260905040515 82 104 0.0 1.0 0.00 0.00 0.00 81 1013.4
20260905040036 83 104 0.0 2.0 0.00 0.00 0.00 80 1013.5
20260905035520 83 105 0.0 2.0 0.00 0.00 0.00 80 1013.6
20260905035018 83 104 0.0 1.0 0.00 0.00 0.00 80 1013.5
20260905034533 83 104 0.0 1.0 0.00 0.00 0.00 80 1013.5
20260905034017 83 60 0.0 2.0 0.00 0.00 0.00 80 1013.5
20260905033517 83 46 1.0 3.0 0.00 0.00 0.00 80 1013.5
20260905033041 83 46 1.0 3.0 0.00 0.00 0.00 80 1013.5
20260905032513 83 32 2.0 3.0 0.00 0.00 0.00 81 1013.5
20260905032015 82 32 2.0 3.0 0.00 0.00 0.00 81 1013.5
20260905031526 83 30 1.0 3.0 0.00 0.00 0.00 81 1013.6
20260905031018 83 357 2.0 3.0 0.00 0.00 0.00 81 1013.5
20260905030516 83 337 2.0 3.0 0.00 0.00 0.00 80 1013.4
20260905030033 84 312 3.0 3.0 0.00 0.00 0.00 78 1013.5
20260905025517 84 313 3.0 3.0 0.00 0.00 0.00 78 1013.4
20260905025020 84 339 3.0 3.0 0.00 0.00 0.00 78 1013.4
20260905024534 84 34 1.0 2.0 0.00 0.00 0.00 78 1013.5
20260905024020 84 29 2.0 2.0 0.00 0.00 0.00 78 1013.4
20260905023516 84 28 2.0 3.0 0.00 0.00 0.00 78 1013.4
20260905023038 85 28 2.0 3.0 0.00 0.00 0.00 78 1013.4
20260905022521 85 30 2.0 3.0 0.00 0.00 0.00 77 1013.3
20260905022018 85 30 2.0 3.0 0.00 0.00 0.00 76 1013.1
20260905021526 86 29 2.0 3.0 0.00 0.00 0.00 76 1013.1
20260905021014 86 29 2.0 3.0 0.00 0.00 0.00 75 1013.2
20260905020515 86 33 2.0 2.0 0.00 0.00 0.00 75 1013.1
20260905020029 86 32 1.0 2.0 0.00 0.00 0.00 76 1013.2
20260905015526 86 32 1.0 3.0 0.00 0.00 0.00 76 1013.0
20260905015016 86 32 2.0 3.0 0.00 0.00 0.00 76 1013.0
20260905014536 86 32 2.0 2.0 0.00 0.00 0.00 76 1013.0
20260905014018 86 31 2.0 2.0 0.00 0.00 0.00 76 1012.9
20260905013521 86 352 1.0 2.0 0.00 0.00 0.00 76 1012.8
20260905013031 86 342 1.0 3.0 0.00 0.00 0.00 76 1012.8
20260905012516 86 342 2.0 3.0 0.00 0.00 0.00 76 1012.9
20260905012017 86 347 2.0 3.0 0.00 0.00 0.00 76 1012.8
20260905011535 87 348 2.0 3.0 0.00 0.00 0.00 75 1012.8
20260905011023 87 328 1.0 3.0 0.00 0.00 0.00 74 1012.8
20260905010512 88 343 2.0 3.0 0.00 0.00 0.00 73 1012.8
20260905010027 88 345 2.0 4.0 0.00 0.00 0.00 73 1012.8
20260905005514 88 347 1.0 4.0 0.00 0.00 0.00 72 1012.7
20260905005016 88 338 2.0 3.0 0.00 0.00 0.00 72 1012.7
20260905004530 88 353 2.0 3.0 0.00 0.00 0.00 71 1012.7
20260905004016 89 354 2.0 3.0 0.00 0.00 0.00 70 1012.8
20260905003516 89 358 1.0 3.0 0.00 0.00 0.00 69 1012.8
20260905003033 89 333 2.0 3.0 0.00 0.00 0.00 69 1012.8
20260905002515 90 323 3.0 4.0 0.00 0.00 0.00 68 1012.8
20260905002018 90 319 3.0 4.0 0.00 0.00 0.00 68 1012.9
20260905001537 90 314 3.0 4.0 0.00 0.00 0.00 68 1012.9
20260905001016 90 314 2.0 5.0 0.00 0.00 0.00 67 1012.9
20260905000521 90 336 2.0 5.0 0.00 0.00 0.00 66 1012.8
20260905000036 91 302 3.0 4.0 0.00 0.00 0.00 66 1012.9
20260904235518 91 319 2.0 5.0 0.00 0.00 0.00 65 1012.9
20260904235017 91 330 3.0 6.0 0.00 0.00 0.00 65 1012.9
20260904234539 92 46 4.0 6.0 0.00 0.00 0.00 64 1012.9
20260904234019 92 314 4.0 6.0 0.00 0.00 0.00 64 1012.8
20260904233514 92 321 4.0 6.0 0.00 0.00 0.00 64 1012.8
20260904233032 92 321 4.0 6.0 0.00 0.00 0.00 63 1012.8
20260904232516 93 335 3.0 6.0 0.00 0.00 0.00 63 1012.8
20260904232016 93 334 3.0 6.0 0.00 0.00 0.00 62 1012.7
20260904231535 93 311 4.0 6.0 0.00 0.00 0.00 62 1012.6
20260904231022 93 309 5.0 6.0 0.00 0.00 0.00 61 1012.5
20260904230516 93 314 4.0 8.0 0.00 0.00 0.00 60 1012.5
20260904230036 94 308 5.0 8.0 0.00 0.00 0.00 60 1012.5
20260904225522 94 305 4.0 8.0 0.00 0.00 0.00 59 1012.5
20260904225013 94 291 4.0 8.0 0.00 0.00 0.00 58 1012.6
20260904224530 94 313 5.0 8.0 0.00 0.00 0.00 58 1012.5
20260904224012 94 319 5.0 8.0 0.00 0.00 0.00 59 1012.5
20260904223516 94 311 4.0 8.0 0.00 0.00 0.00 58 1012.4
20260904223028 94 313 6.0 10.0 0.00 0.00 0.00 58 1012.4
20260904222516 94 330 5.0 10.0 0.00 0.00 0.00 58 1012.4
20260904222019 94 327 4.0 9.0 0.00 0.00 0.00 58 1012.3
20260904221538 94 299 5.0 10.0 0.00 0.00 0.00 58 1012.3
20260904221016 94 319 5.0 10.0 0.00 0.00 0.00 58 1012.3
20260904220525 94 21 3.0 9.0 0.00 0.00 0.00 58 1012.2
20260904220054 94 340 6.0 9.0 0.00 0.00 0.00 57 1012.3
20260904215518 95 315 6.0 9.0 0.00 0.00 0.00 58 1012.3
20260904215021 95 317 5.0 12.0 0.00 0.00 0.00 57 1012.4
20260904214537 94 1 3.0 12.0 0.00 0.00 0.00 58 1012.4